Time,TemperatureF,DewpointF,PressureIn,WindDirection,WindDirectionDegrees,WindSpeedMPH,WindSpeedGustMPH,Humidity,HourlyPrecipIn,Conditions,Clouds,dailyrainin,SoftwareType,DateUTC
2013-08-04 00:02:00,54.0,39.0,-100.00,NE,40,1.0,4.0,56,-99.99,,,-99.99,,2013-08-04 07:02:00,
2013-08-04 00:12:00,53.0,39.0,-100.00,NNE,31,1.0,3.0,58,-99.99,,,-99.99,,2013-08-04 07:12:00,
2013-08-04 00:22:00,53.0,39.0,-100.00,NNE,31,1.0,3.0,58,-99.99,,,-99.99,,2013-08-04 07:22:00,
2013-08-04 00:32:00,53.0,39.0,-100.00,NNE,31,1.0,3.0,58,-99.99,,,-99.99,,2013-08-04 07:32:00,
2013-08-04 00:42:00,52.0,38.0,-100.00,NNE,20,2.0,3.0,58,-99.99,,,-99.99,,2013-08-04 07:42:00,
2013-08-04 00:53:00,52.0,38.0,-100.00,NNE,20,2.0,3.0,58,-99.99,,,-99.99,,2013-08-04 07:53:00,
2013-08-04 01:02:00,52.0,38.0,-100.00,NE,44,2.0,3.0,59,-99.99,,,-99.99,,2013-08-04 08:02:00,
2013-08-04 01:11:00,52.0,38.0,-100.00,NE,44,2.0,3.0,59,-99.99,,,-99.99,,2013-08-04 08:11:00,
2013-08-04 01:22:00,51.0,38.0,-100.00,NE,35,2.0,3.0,60,-99.99,,,-99.99,,2013-08-04 08:22:00,
2013-08-04 01:32:00,51.0,38.0,-100.00,NE,35,2.0,3.0,60,-99.99,,,-99.99,,2013-08-04 08:32:00,
2013-08-04 01:43:00,51.0,38.0,-100.00,NNE,28,0.0,3.0,62,-99.99,,,-99.99,,2013-08-04 08:43:00,
2013-08-04 01:53:00,51.0,38.0,-100.00,NNE,28,0.0,3.0,62,-99.99,,,-99.99,,2013-08-04 08:53:00,
2013-08-04 02:02:00,51.0,38.0,-100.00,NE,49,1.0,4.0,62,-99.99,,,-99.99,,2013-08-04 09:02:00,
2013-08-04 02:12:00,51.0,38.0,-100.00,NE,49,1.0,4.0,62,-99.99,,,-99.99,,2013-08-04 09:12:00,
2013-08-04 02:22:00,50.0,38.0,-100.00,NE,37,1.0,4.0,63,-99.99,,,-99.99,,2013-08-04 09:22:00,
2013-08-04 02:32:00,50.0,38.0,-100.00,NE,37,1.0,4.0,63,-99.99,,,-99.99,,2013-08-04 09:32:00,
2013-08-04 02:43:00,50.0,38.0,-100.00,NE,47,1.0,4.0,62,-99.99,,,-99.99,,2013-08-04 09:43:00,
2013-08-04 02:52:00,50.0,38.0,-100.00,NE,47,1.0,4.0,62,-99.99,,,-99.99,,2013-08-04 09:52:00,
2013-08-04 03:02:00,50.0,38.0,-100.00,NE,47,1.0,4.0,62,-99.99,,,-99.99,,2013-08-04 10:02:00,
2013-08-04 03:11:00,48.0,36.0,-100.00,NNE,20,2.0,4.0,64,-99.99,,,-99.99,,2013-08-04 10:11:00,
2013-08-04 03:22:00,48.0,36.0,-100.00,NNE,21,3.0,4.0,64,-99.99,,,-99.99,,2013-08-04 10:22:00,
2013-08-04 03:32:00,48.0,36.0,-100.00,NNE,21,3.0,4.0,64,-99.99,,,-99.99,,2013-08-04 10:32:00,
2013-08-04 03:42:00,48.0,36.0,-100.00,NNE,21,3.0,4.0,64,-99.99,,,-99.99,,2013-08-04 10:42:00,
2013-08-04 03:53:00,49.0,37.0,-100.00,NNE,23,0.0,2.0,62,-99.99,,,-99.99,,2013-08-04 10:53:00,
2013-08-04 04:02:00,49.0,37.0,-100.00,NNE,23,0.0,2.0,62,-99.99,,,-99.99,,2013-08-04 11:02:00,
2013-08-04 04:12:00,48.0,36.0,-100.00,NE,34,1.0,3.0,62,-99.99,,,-99.99,,2013-08-04 11:12:00,
2013-08-04 04:22:00,48.0,36.0,-100.00,NE,34,1.0,3.0,62,-99.99,,,-99.99,,2013-08-04 11:22:00,
2013-08-04 04:32:00,48.0,36.0,-100.00,NE,40,0.0,2.0,62,-99.99,,,-99.99,,2013-08-04 11:32:00,
2013-08-04 04:42:00,48.0,36.0,-100.00,NE,40,0.0,2.0,62,-99.99,,,-99.99,,2013-08-04 11:42:00,
2013-08-04 04:53:00,47.0,35.0,-100.00,NNE,30,0.0,3.0,63,-99.99,,,-99.99,,2013-08-04 11:53:00,
2013-08-04 05:02:00,47.0,35.0,-100.00,NNE,30,0.0,3.0,63,-99.99,,,-99.99,,2013-08-04 12:02:00,
2013-08-04 05:12:00,47.0,35.0,-100.00,NNE,31,1.0,3.0,63,-99.99,,,-99.99,,2013-08-04 12:12:00,
2013-08-04 05:22:00,47.0,35.0,-100.00,NNE,31,1.0,3.0,63,-99.99,,,-99.99,,2013-08-04 12:22:00,
2013-08-04 05:32:00,47.0,35.0,-100.00,NE,37,1.0,3.0,63,-99.99,,,-99.99,,2013-08-04 12:32:00,
2013-08-04 05:43:00,47.0,35.0,-100.00,NE,37,1.0,3.0,63,-99.99,,,-99.99,,2013-08-04 12:43:00,
2013-08-04 05:53:00,47.0,36.0,-100.00,NE,48,1.0,3.0,66,-99.99,,,-99.99,,2013-08-04 12:53:00,
2013-08-04 06:02:00,47.0,36.0,-100.00,NE,48,1.0,3.0,66,-99.99,,,-99.99,,2013-08-04 13:02:00,
2013-08-04 06:12:00,46.0,36.0,-100.00,ESE,102,0.0,2.0,67,-99.99,,,-99.99,,2013-08-04 13:12:00,
2013-08-04 06:22:00,46.0,36.0,-100.00,ESE,102,0.0,2.0,67,-99.99,,,-99.99,,2013-08-04 13:22:00,
2013-08-04 06:32:00,45.0,37.0,-100.00,NNE,27,1.0,3.0,72,-99.99,,,-99.99,,2013-08-04 13:32:00,
2013-08-04 06:43:00,45.0,37.0,-100.00,NNE,27,1.0,3.0,72,-99.99,,,-99.99,,2013-08-04 13:43:00,
2013-08-04 06:52:00,45.0,37.0,-100.00,NNE,27,1.0,3.0,72,-99.99,,,-99.99,,2013-08-04 13:52:00,
2013-08-04 07:12:00,46.0,36.0,-100.00,North,-999,-999.0,-999.0,68,-99.99,,,-99.99,,2013-08-04 14:12:00,
2013-08-04 07:22:00,46.0,36.0,-100.00,NE,47,0.0,3.0,68,-99.99,,,-99.99,,2013-08-04 14:22:00,
2013-08-04 07:32:00,46.0,36.0,-100.00,NE,47,0.0,3.0,68,-99.99,,,-99.99,,2013-08-04 14:32:00,
2013-08-04 07:42:00,47.0,37.0,-100.00,NNE,25,2.0,4.0,67,-99.99,,,-99.99,,2013-08-04 14:42:00,
2013-08-04 07:53:00,47.0,37.0,-100.00,NNE,25,2.0,4.0,67,-99.99,,,-99.99,,2013-08-04 14:53:00,
2013-08-04 08:02:00,50.0,38.0,-100.00,NE,56,1.0,3.0,63,-99.99,,,-99.99,,2013-08-04 15:02:00,
2013-08-04 08:12:00,50.0,38.0,-100.00,NE,56,1.0,3.0,63,-99.99,,,-99.99,,2013-08-04 15:12:00,
2013-08-04 08:22:00,52.0,39.0,-100.00,NNE,20,1.0,3.0,60,-99.99,,,-99.99,,2013-08-04 15:22:00,
2013-08-04 08:32:00,52.0,39.0,-100.00,NNE,20,1.0,3.0,60,-99.99,,,-99.99,,2013-08-04 15:32:00,
2013-08-04 08:42:00,56.0,41.0,-100.00,NNE,24,1.0,2.0,57,-99.99,,,-99.99,,2013-08-04 15:42:00,
2013-08-04 08:53:00,56.0,41.0,-100.00,NNE,24,1.0,2.0,57,-99.99,,,-99.99,,2013-08-04 15:53:00,
2013-08-04 09:12:00,61.0,40.0,-100.00,NNW,340,0.0,2.0,46,-99.99,,,-99.99,,2013-08-04 16:12:00,
2013-08-04 09:22:00,61.0,40.0,-100.00,NNW,340,0.0,2.0,46,-99.99,,,-99.99,,2013-08-04 16:22:00,
2013-08-04 09:32:00,61.0,42.0,-100.00,SSE,158,2.0,4.0,50,-99.99,,,-99.99,,2013-08-04 16:32:00,
2013-08-04 09:42:00,62.0,44.0,-100.00,SSW,196,2.0,4.0,51,-99.99,,,-99.99,,2013-08-04 16:42:00,
2013-08-04 09:52:00,62.0,44.0,-100.00,SSW,196,2.0,4.0,51,-99.99,,,-99.99,,2013-08-04 16:52:00,
2013-08-04 10:02:00,63.0,45.0,-100.00,South,188,3.0,6.0,51,-99.99,,,-99.99,,2013-08-04 17:02:00,
2013-08-04 10:12:00,63.0,45.0,-100.00,South,188,3.0,6.0,51,-99.99,,,-99.99,,2013-08-04 17:12:00,
2013-08-04 10:22:00,64.0,44.0,-100.00,South,184,3.0,5.0,49,-99.99,,,-99.99,,2013-08-04 17:22:00,
2013-08-04 10:32:00,64.0,44.0,-100.00,South,184,3.0,5.0,49,-99.99,,,-99.99,,2013-08-04 17:32:00,
2013-08-04 10:43:00,64.0,44.0,-100.00,South,184,3.0,5.0,49,-99.99,,,-99.99,,2013-08-04 17:43:00,
2013-08-04 10:53:00,65.0,44.0,-100.00,SSW,196,3.0,6.0,47,-99.99,,,-99.99,,2013-08-04 17:53:00,
2013-08-04 11:02:00,65.0,44.0,-100.00,SSW,196,3.0,6.0,47,-99.99,,,-99.99,,2013-08-04 18:02:00,
2013-08-04 11:12:00,67.0,43.0,-100.00,SW,217,3.0,6.0,41,-99.99,,,-99.99,,2013-08-04 18:12:00,
2013-08-04 11:22:00,67.0,43.0,-100.00,SW,217,3.0,6.0,41,-99.99,,,-99.99,,2013-08-04 18:22:00,
2013-08-04 11:33:00,68.0,42.0,-100.00,South,188,3.0,7.0,39,-99.99,,,-99.99,,2013-08-04 18:33:00,
2013-08-04 11:43:00,68.0,42.0,-100.00,South,188,3.0,7.0,39,-99.99,,,-99.99,,2013-08-04 18:43:00,
2013-08-04 11:52:00,69.0,38.0,-100.00,SSW,210,3.0,7.0,32,-99.99,,,-99.99,,2013-08-04 18:52:00,
2013-08-04 12:02:00,69.0,38.0,-100.00,SSW,210,3.0,7.0,32,-99.99,,,-99.99,,2013-08-04 19:02:00,
2013-08-04 12:12:00,70.0,30.0,-100.00,SSW,205,4.0,7.0,23,-99.99,,,-99.99,,2013-08-04 19:12:00,
2013-08-04 12:22:00,70.0,30.0,-100.00,SSW,205,4.0,7.0,23,-99.99,,,-99.99,,2013-08-04 19:22:00,
2013-08-04 12:33:00,72.0,31.0,-100.00,SSW,193,3.0,6.0,22,-99.99,,,-99.99,,2013-08-04 19:33:00,
2013-08-04 12:44:00,72.0,31.0,-100.00,SSW,193,3.0,6.0,22,-99.99,,,-99.99,,2013-08-04 19:44:00,
2013-08-04 12:53:00,73.0,31.0,-100.00,WSW,237,5.0,9.0,21,-99.99,,,-99.99,,2013-08-04 19:53:00,
2013-08-04 13:02:00,73.0,31.0,-100.00,WSW,237,5.0,9.0,21,-99.99,,,-99.99,,2013-08-04 20:02:00,
2013-08-04 13:12:00,76.0,36.0,-100.00,SW,236,5.0,9.0,23,-99.99,,,-99.99,,2013-08-04 20:12:00,
2013-08-04 13:22:00,76.0,36.0,-100.00,SW,236,5.0,9.0,23,-99.99,,,-99.99,,2013-08-04 20:22:00,
2013-08-04 13:42:00,76.0,29.0,-100.00,WSW,241,5.0,9.0,18,-99.99,,,-99.99,,2013-08-04 20:42:00,
2013-08-04 14:02:00,76.0,28.0,-100.00,SSW,208,5.0,9.0,17,-99.99,,,-99.99,,2013-08-04 21:02:00,
2013-08-04 14:12:00,76.0,28.0,-100.00,SSW,208,5.0,9.0,17,-99.99,,,-99.99,,2013-08-04 21:12:00,
2013-08-04 14:22:00,77.0,29.0,-100.00,SW,223,4.0,10.0,17,-99.99,,,-99.99,,2013-08-04 21:22:00,
2013-08-04 14:32:00,77.0,29.0,-100.00,SW,223,4.0,10.0,17,-99.99,,,-99.99,,2013-08-04 21:32:00,
2013-08-04 14:43:00,77.0,30.0,-100.00,West,260,5.0,10.0,18,-99.99,,,-99.99,,2013-08-04 21:43:00,
2013-08-04 14:53:00,77.0,30.0,-100.00,West,260,5.0,10.0,18,-99.99,,,-99.99,,2013-08-04 21:53:00,
2013-08-04 15:01:00,77.0,29.0,-100.00,West,261,5.0,12.0,17,-99.99,,,-99.99,,2013-08-04 22:01:00,
2013-08-04 15:12:00,77.0,29.0,-100.00,West,261,5.0,12.0,17,-99.99,,,-99.99,,2013-08-04 22:12:00,
2013-08-04 15:22:00,77.0,29.0,-100.00,West,261,5.0,12.0,17,-99.99,,,-99.99,,2013-08-04 22:22:00,
2013-08-04 15:32:00,77.0,33.0,-100.00,SW,232,7.0,15.0,20,-99.99,,,-99.99,,2013-08-04 22:32:00,
2013-08-04 15:43:00,77.0,34.0,-100.00,West,275,8.0,14.0,21,-99.99,,,-99.99,,2013-08-04 22:43:00,
2013-08-04 15:53:00,77.0,34.0,-100.00,West,275,8.0,14.0,21,-99.99,,,-99.99,,2013-08-04 22:53:00,
2013-08-04 16:02:00,77.0,34.0,-100.00,West,263,8.0,17.0,21,-99.99,,,-99.99,,2013-08-04 23:02:00,
2013-08-04 16:11:00,77.0,34.0,-100.00,West,263,8.0,17.0,21,-99.99,,,-99.99,,2013-08-04 23:11:00,
2013-08-04 16:22:00,77.0,35.0,-100.00,West,261,8.0,14.0,22,-99.99,,,-99.99,,2013-08-04 23:22:00,
2013-08-04 16:32:00,77.0,35.0,-100.00,West,261,8.0,14.0,22,-99.99,,,-99.99,,2013-08-04 23:32:00,
2013-08-04 16:43:00,77.0,37.0,-100.00,WSW,251,8.0,15.0,24,-99.99,,,-99.99,,2013-08-04 23:43:00,
2013-08-04 16:52:00,77.0,37.0,-100.00,WSW,251,8.0,15.0,24,-99.99,,,-99.99,,2013-08-04 23:52:00,
2013-08-04 17:01:00,77.0,38.0,-100.00,WSW,251,9.0,15.0,25,-99.99,,,-99.99,,2013-08-05 00:01:00,
2013-08-04 17:12:00,77.0,38.0,-100.00,WSW,251,9.0,15.0,25,-99.99,,,-99.99,,2013-08-05 00:12:00,
2013-08-04 17:22:00,76.0,38.0,-100.00,WSW,240,10.0,17.0,25,-99.99,,,-99.99,,2013-08-05 00:22:00,
2013-08-04 17:32:00,76.0,38.0,-100.00,WSW,240,10.0,17.0,25,-99.99,,,-99.99,,2013-08-05 00:32:00,
2013-08-04 17:42:00,76.0,38.0,-100.00,WSW,240,10.0,17.0,25,-99.99,,,-99.99,,2013-08-05 00:42:00,
2013-08-04 17:52:00,75.0,41.0,-100.00,WSW,243,8.0,14.0,30,-99.99,,,-99.99,,2013-08-05 00:52:00,
2013-08-04 18:02:00,75.0,41.0,-100.00,WSW,243,8.0,14.0,30,-99.99,,,-99.99,,2013-08-05 01:02:00,
2013-08-04 18:12:00,75.0,40.0,-100.00,WSW,244,10.0,15.0,28,-99.99,,,-99.99,,2013-08-05 01:12:00,
2013-08-04 18:22:00,75.0,40.0,-100.00,WSW,244,10.0,15.0,28,-99.99,,,-99.99,,2013-08-05 01:22:00,
2013-08-04 18:33:00,74.0,42.0,-100.00,WSW,246,10.0,16.0,32,-99.99,,,-99.99,,2013-08-05 01:33:00,
2013-08-04 18:42:00,74.0,42.0,-100.00,WSW,246,10.0,16.0,32,-99.99,,,-99.99,,2013-08-05 01:42:00,
2013-08-04 18:52:00,74.0,38.0,-100.00,WSW,248,7.0,12.0,27,-99.99,,,-99.99,,2013-08-05 01:52:00,
2013-08-04 19:02:00,74.0,38.0,-100.00,WSW,248,7.0,12.0,27,-99.99,,,-99.99,,2013-08-05 02:02:00,
2013-08-04 19:12:00,75.0,36.0,-100.00,South,189,5.0,9.0,24,-99.99,,,-99.99,,2013-08-05 02:12:00,
2013-08-04 19:22:00,75.0,36.0,-100.00,South,189,5.0,9.0,24,-99.99,,,-99.99,,2013-08-05 02:22:00,
2013-08-04 19:33:00,74.0,35.0,-100.00,South,174,4.0,12.0,24,-99.99,,,-99.99,,2013-08-05 02:33:00,
2013-08-04 19:43:00,74.0,35.0,-100.00,South,174,4.0,12.0,24,-99.99,,,-99.99,,2013-08-05 02:43:00,
2013-08-04 19:53:00,73.0,35.0,-100.00,SSE,165,4.0,12.0,25,-99.99,,,-99.99,,2013-08-05 02:53:00,
2013-08-04 20:01:00,73.0,35.0,-100.00,SSE,165,4.0,12.0,25,-99.99,,,-99.99,,2013-08-05 03:01:00,
2013-08-04 20:12:00,71.0,38.0,-100.00,SW,222,5.0,12.0,30,-99.99,,,-99.99,,2013-08-05 03:12:00,
2013-08-04 20:22:00,71.0,38.0,-100.00,SW,222,5.0,12.0,30,-99.99,,,-99.99,,2013-08-05 03:22:00,
2013-08-04 20:32:00,68.0,39.0,-100.00,West,264,4.0,7.0,35,-99.99,,,-99.99,,2013-08-05 03:32:00,
2013-08-04 20:42:00,68.0,39.0,-100.00,West,264,4.0,7.0,35,-99.99,,,-99.99,,2013-08-05 03:42:00,
2013-08-04 20:53:00,68.0,36.0,-100.00,SW,215,4.0,9.0,31,-99.99,,,-99.99,,2013-08-05 03:53:00,
2013-08-04 21:02:00,68.0,36.0,-100.00,SW,215,4.0,9.0,31,-99.99,,,-99.99,,2013-08-05 04:02:00,
2013-08-04 21:12:00,68.0,36.0,-100.00,SW,215,4.0,9.0,31,-99.99,,,-99.99,,2013-08-05 04:12:00,
2013-08-04 21:21:00,66.0,36.0,-100.00,WSW,239,3.0,8.0,33,-99.99,,,-99.99,,2013-08-05 04:21:00,
2013-08-04 21:32:00,66.0,36.0,-100.00,WSW,239,3.0,8.0,33,-99.99,,,-99.99,,2013-08-05 04:32:00,
2013-08-04 21:42:00,64.0,37.0,-100.00,NNW,328,1.0,4.0,36,-99.99,,,-99.99,,2013-08-05 04:42:00,
2013-08-04 22:02:00,64.0,36.0,-100.00,WNW,288,3.0,7.0,35,-99.99,,,-99.99,,2013-08-05 05:02:00,
2013-08-04 22:12:00,64.0,36.0,-100.00,WNW,288,3.0,7.0,35,-99.99,,,-99.99,,2013-08-05 05:12:00,
2013-08-04 22:22:00,62.0,37.0,-100.00,NW,311,1.0,3.0,40,-99.99,,,-99.99,,2013-08-05 05:22:00,
2013-08-04 22:32:00,62.0,37.0,-100.00,NW,311,1.0,3.0,40,-99.99,,,-99.99,,2013-08-05 05:32:00,
2013-08-04 22:43:00,59.0,35.0,-100.00,NE,37,2.0,4.0,41,-99.99,,,-99.99,,2013-08-05 05:43:00,
2013-08-04 22:53:00,59.0,35.0,-100.00,NE,37,2.0,4.0,41,-99.99,,,-99.99,,2013-08-05 05:53:00,
2013-08-04 23:02:00,58.0,36.0,-100.00,NNE,17,2.0,4.0,44,-99.99,,,-99.99,,2013-08-05 06:02:00,
2013-08-04 23:12:00,58.0,36.0,-100.00,NNE,17,2.0,4.0,44,-99.99,,,-99.99,,2013-08-05 06:12:00,
2013-08-04 23:22:00,57.0,37.0,-100.00,NE,51,1.0,4.0,47,-99.99,,,-99.99,,2013-08-05 06:22:00,
2013-08-04 23:32:00,57.0,37.0,-100.00,NE,51,1.0,4.0,47,-99.99,,,-99.99,,2013-08-05 06:32:00,
2013-08-04 23:42:00,57.0,37.0,-100.00,ENE,61,2.0,4.0,47,-99.99,,,-99.99,,2013-08-05 06:42:00,
2013-08-04 23:52:00,57.0,37.0,-100.00,ENE,61,2.0,4.0,47,-99.99,,,-99.99,,2013-08-05 06:52:00,